Tracking 19475 objects as of 18-Jan-2019
HD Live streaming from Space Station
objects crossing your sky now

RADUGA 9

Track RADUGA 9 now!
RADUGA 9 is classified as:


NORAD ID: 12618
Int'l Code: 1981-069A
Perigee: 35,795.9 km
Apogee: 35,829.7 km
Inclination: 12.5 °
Period: 1,437.1 minutes
Semi major axis: 42183 km
RCS: 7.0794 m2 (large)
Launch date: July 30, 1981
Source: Commonwealth of Independent States (former USSR) (CIS)
Launch site: TYURATAM MISSILE AND SPACE COMPLEX (TTMTR)
aabbcc
Your satellite tracking list
Your tracking list is empty




NASA's NSSDC Master Catalog

Two Line Element Set (TLE):
1 12618U 81069A   19017.75476535 -.00000267  00000-0  00000+0 0  9997
2 12618  12.4614 321.8321 0004011   9.0116 154.3810  1.00203769101182
Source of the keplerian elements: AFSPC